Location: Norton
(51.3000°N, 0.8167°E)
Time: 11:25:06
(UTC+00:00)

ERBS - Pass Details

Date: 03 March 2021
Orbit: 408 x 412 km, 57.0° (Epoch: 13 April)

Event Time Altitude Azimuth Distance (km) Brightness Sun altitude
Rises 18:55:22 0° 248° (WSW) 2,349 7.3 -12.4°
Reaches altitude 10° 18:57:28 10° 252° (WSW) 1,487 6.2 -12.7°
Maximum altitude 19:00:45 62° 335° (NNW) 471 2.6 -13.2°
Enters shadow 19:03:04 18° 53° (NE) 1,098 3.9 -13.6°
